User: anonymous   Login
Location: Gro�wechsungen
(51.4926°N, 10.6901°E)
Time: 00:00:35
(UTC+00:00)
Language:

SPOT 3 Rocket - Orbit

View from above orbital plane
View from above orbital plane
View from above satellite
View from above satellite

Ground track
Ground track

The orbit data is extracted from the following two-line orbital elements,

1 22830U 93061H   20332.72638667  .00000005  00000-0  18781-4 0  9993
2 22830  98.7447  23.2654 0010669 198.3314 161.7486 14.31460731418432
Epoch (UTC): 27 November 2020 17:25:59
Eccentricity: 0.0010669
inclination: 98.7447°
perigee height: 779 km
apogee height: 794 km
right ascension of ascending node: 23.2654°
argument of perigee: 198.3314°
revolutions per day: 14.31460731
mean anomaly at epoch: 161.7486°
orbit number at epoch: 41843

The dashed part of the orbit path shows where the satellite is in the earth's shadow,  

DLR